Location: Unspecified
(0.0000°N, 0.0000°E)
Time: 17:50:33
(UTC+02:00)

DELTA 2 R/B (1) - Visible Passes

Search period start: 30 September 2014 00:00
Search period end: 10 October 2014 00:00
Orbit: 791 x 804 km, 39.6° (Epoch: 29 September)

Date Brightness Start Highest point End Pass type
(mag) Time Alt. Az. Time Alt. Az. Time Alt. Az.
30 Sep 3.6 20:49:07 10° NW 20:54:43 87° SW 20:59:13 16° SE visible
30 Sep 6.3 22:38:50 10° WSW 22:40:05 12° SW 22:40:05 12° SW visible
01 Oct 3.6 20:18:32 10° NW 20:24:08 83° NE 20:29:44 10° SE visible
01 Oct 6.0 22:07:38 10° WSW 22:10:36 15° SW 22:12:16 13° SSW visible
02 Oct 5.4 07:10:53 10° SSW 07:15:39 29° SE 07:20:25 10° E visible
02 Oct 6.0 21:36:33 10° WSW 21:39:59 16° SW 21:43:24 10° S visible
03 Oct 5.5 06:40:29 10° SSW 06:45:03 26° SE 06:49:36 10° E visible
03 Oct 6.0 21:05:34 10° W 21:09:21 19° SW 21:13:10 10° S visible
04 Oct 5.6 06:10:07 10° S 06:14:27 23° SE 06:18:46 10° E visible
04 Oct 5.9 20:34:37 10° W 20:38:44 21° SW 20:42:51 10° S visible
05 Oct 5.7 05:41:22 16° S 05:43:50 21° SE 05:47:53 10° E visible
05 Oct 5.9 20:03:44 10° W 20:08:07 23° SW 20:12:31 10° SSE visible
06 Oct 5.8 05:13:31 18° SE 05:13:31 18° SE 05:16:57 10° E visible
06 Oct 3.6 06:54:23 11° WSW 06:59:37 64° NW 07:05:05 10° NE visible
07 Oct 6.5 04:45:41 11° ESE 04:45:41 11° ESE 04:45:57 10° ESE visible
07 Oct 3.4 06:26:33 34° WSW 06:29:02 73° NW 06:34:32 10° NE visible
08 Oct 3.4 05:58:41 80° N 05:58:41 80° N 06:03:58 10° NE visible
09 Oct 5.1 05:30:44 29° NE 05:30:44 29° NE 05:33:23 10° NE visible
09 Oct 5.4 07:11:42 10° WNW 07:14:19 13° NW 07:16:56 10° N visible
